Flag for Turkey Weather past 2 weeks in Ankara, Turkey

Now
25 °F

Clear.


Feels Like: 25 °F
Forecast: 22 / 48 °F
Wind: 2 mph from North

Location: Ankara / Esenboga

Current Time: Dec 23, 2014 at 3:05:59 AM

Latest Report: Dec 23, 2014 at 2:20 AM


Visibility: 10 mi

Pressure: 30.15 "Hg

Humidity: 93%

Dew point: 23 °F

Location of AnkaraLocation

Historic Weather in Ankara — Graph

°F

Ankara temperature yesterday

Maximum temperature yesterday: 39 °F (at 12:20 PM)
Minimum temperature yesterday: 25 °F (at 10:50 PM)
Average temperature yesterday: 34 °F

Past Weeks' High & Low Weather Summary

 TemperatureHumidityPressure
High55 °F (Dec 10, 1:20 PM)100% (Dec 8, 2:50 AM)30.36 "Hg (Dec 8, 2:50 AM)
Low23 °F (Dec 23, 12:50 AM)42% (Dec 22, 1:20 PM)29.83 "Hg (Dec 9, 11:50 AM)
Average39 °F87%30.13 "Hg
* Reported Dec 8 1:20 AM — Dec 23 1:20 AM, Ankara, Weather by CustomWeather, © 2014

Note: Actual official high and low records may vary slightly from our data, if they occured in-between our weather recording intervals... More about our weather records

Advertising

Ankara weather history for previous 24 hours

 ConditionsComfort  
Time TempWeatherWind HumidityBarometerVisibility
1:20 AM
Dec 23
23 °FClear.2 mph93%30.15 "Hg10 mi
12:50 AM23 °FClear.1 mph86%30.15 "Hg10 mi
12:20 AM25 °FPassing clouds.3 mph86%30.18 "HgN/A
11:50 PM
Dec 22
25 °FPassing clouds.2 mph86%30.18 "HgN/A
11:20 PM25 °FPassing clouds.2 mph86%30.18 "HgN/A
10:50 PM25 °FPassing clouds.1 mph86%30.18 "HgN/A
10:20 PM27 °FPassing clouds.1 mph80%30.18 "HgN/A
9:50 PM27 °FPassing clouds.1 mph80%30.18 "HgN/A
9:20 PM30 °FPassing clouds.3 mph69%30.18 "HgN/A
8:50 PM27 °FPassing clouds.5 mph80%30.18 "HgN/A
8:20 PM27 °FPassing clouds.2 mph80%30.18 "HgN/A
7:50 PM28 °FPassing clouds.2 mph74%30.21 "HgN/A
7:20 PM30 °FPassing clouds.3 mph69%30.21 "HgN/A
6:50 PM30 °FPassing clouds.6 mph69%30.21 "HgN/A
6:20 PM30 °FPassing clouds.3 mph69%30.18 "HgN/A
5:50 PM32 °FPassing clouds.5 mph64%30.18 "HgN/A
5:20 PM32 °FPassing clouds.6 mph64%30.18 "HgN/A
4:50 PM32 °FPassing clouds.7 mph64%30.18 "HgN/A
4:20 PM34 °FPassing clouds.10 mph60%30.18 "HgN/A
3:50 PM36 °FPassing clouds.10 mph56%30.15 "HgN/A
3:20 PM37 °FScattered clouds.13 mph48%30.15 "HgN/A
2:50 PM39 °FScattered clouds.13 mph45%30.15 "HgN/A
2:20 PM39 °FScattered clouds.12 mph45%30.15 "HgN/A
1:50 PM39 °FScattered clouds.5 mph42%30.15 "HgN/A
1:20 PM39 °FScattered clouds.9 mph42%30.18 "HgN/A
12:50 PM39 °FScattered clouds.10 mph45%30.18 "HgN/A
12:20 PM39 °FScattered clouds.10 mph48%30.18 "HgN/A
11:50 AM37 °FScattered clouds.9 mph52%30.18 "HgN/A
11:20 AM37 °FScattered clouds.8 mph56%30.18 "HgN/A
10:50 AM36 °FScattered clouds.8 mph65%30.18 "HgN/A
10:20 AM36 °FScattered clouds.6 mph65%30.18 "HgN/A
9:50 AM36 °FScattered clouds.12 mph75%30.18 "HgN/A
9:20 AM36 °FScattered clouds.10 mph70%30.18 "HgN/A
8:50 AM34 °FScattered clouds.12 mph75%30.18 "HgN/A
8:20 AM36 °FScattered clouds.3 mph70%30.15 "HgN/A
7:50 AM34 °FBroken clouds.3 mph70%30.15 "HgN/A
7:20 AM34 °FPartly sunny.5 mph75%30.12 "HgN/A
6:50 AM34 °FPassing clouds.7 mph75%30.12 "HgN/A
6:20 AM34 °FPassing clouds.2 mph75%30.12 "HgN/A
5:20 AM34 °FPassing clouds.9 mph75%30.09 "HgN/A
4:50 AM34 °FPassing clouds.10 mph81%30.07 "HgN/A
4:20 AM36 °FPassing clouds.10 mph75%30.07 "HgN/A
3:50 AM36 °FPassing clouds.8 mph81%30.07 "HgN/A
3:20 AM36 °FPassing clouds.6 mph81%30.07 "HgN/A
Weather by CustomWeather, © 2014

See weather overviewHow to use our weather pages